Location: Chervonnoye
(48.6000°N, 34.4000°E)
Time: 20:14:03
(UTC+00:00)

RS-44 - Pass Details

Date: 06 December 2021
Orbit: 1175 x 1510 km, 82.5° (Epoch: 19 January)

Event Time Altitude Azimuth Distance (km) Brightness Sun altitude
Rises 04:19:24 0° 348° (NNW) 4,166 ? -9.5°
Reaches altitude 10° 04:22:02 10° 345° (NNW) 3,230 ? -9.1°
Maximum altitude 04:29:32 65° 266° (W) 1,425 ? -8.0°
Drops below altitude 10° 04:37:34 10° 187° (S) 3,449 ? -6.8°
Sets 04:40:29 0° 185° (S) 4,465 ? -6.4°
